{"data":{"norad_id":40271,"epoch":"2026-09-18T22:32:35.965824Z","epoch_age_seconds":149060,"freshness":"FRESH","line1":"1 40271U 14062A   26261.93930516 -.00000155  00000+0  00000+0 0  9990","line2":"2 40271   0.0138 109.1597 0001771 302.9282 188.8874  1.00272674  7732","mean_motion":1.00272674,"eccentricity":0.0001771,"inclination_deg":0.0138,"raan_deg":109.1597,"arg_perigee_deg":302.9282,"mean_anomaly_deg":188.8874,"bstar":0,"rev_number":773,"period_min":1436.0841718453,"perigee_km":35778.878414166,"apogee_km":35793.813073954,"semimajor_km":42164.48274406,"source":"CELESTRAK","updated_at":"2026-09-20T09:00:35.521309Z"}}